• In Moldova, Republic
  • List of Countries
  • For 7 days
  • Water Temperature
  • Satellite Maps
  • Weather Map
  • Weather Widgets
  • user-avatar
    Login

    Hourly Weather Shkoder

    Today, 15 November, Thursday

    Time Temperature Precipitation Wind Pressure Humidity
    00:00 +8°C° 0 mm 4 mps 746 mmHg 65%
    01:00 +8°C° 0 mm 4 mps 746 mmHg 66%
    02:00 +8°C° 0 mm 4 mps 745 mmHg 66%
    03:00 +7°C° 0 mm 4 mps 745 mmHg 67%
    04:00 +7°C° 0 mm 4 mps 745 mmHg 67%
    05:00 +7°C° 0 mm 4 mps 745 mmHg 68%
    06:00 +7°C° 0 mm 4 mps 745 mmHg 68%
    07:00 +7°C° 0 mm 4 mps 745 mmHg 68%
    08:00 +10°C° 0 mm 4 mps 745 mmHg 61%
    09:00 +11°C° 0 mm 4 mps 745 mmHg 54%
    10:00 +13°C° 0 mm 4 mps 745 mmHg 46%
    11:00 +14°C° 0 mm 4 mps 745 mmHg 44%
    12:00 +14°C° 0 mm 4 mps 744 mmHg 41%
    13:00 +16°C° 0 mm 3 mps 744 mmHg 38%
    14:00 +14°C° 0 mm 3 mps 744 mmHg 42%
    15:00 +13°C° 0 mm 3 mps 744 mmHg 46%
    16:00 +12°C° 0 mm 3 mps 744 mmHg 49%
    17:00 +11°C° 0 mm 3 mps 744 mmHg 54%
    18:00 +10°C° 0 mm 3 mps 744 mmHg 58%
    19:00 +8°C° 0 mm 4 mps 744 mmHg 62%
    20:00 +7°C° 0 mm 4 mps 744 mmHg 65%
    21:00 +7°C° 0 mm 4 mps 744 mmHg 68%
    22:00 +6°C° 0 mm 4 mps 744 mmHg 70%
    23:00 +6°C° 0 mm 4 mps 745 mmHg 72%

    Tomorrow, 16 November, Friday

    Time Temperature Precipitation Wind Pressure Humidity
    00:00 +6°C° 0 mm 4 mps 745 mmHg 73%
    01:00 +6°C° 0 mm 4 mps 745 mmHg 74%
    02:00 +5°C° 0 mm 4 mps 744 mmHg 74%
    03:00 +5°C° 0 mm 4 mps 744 mmHg 75%
    04:00 +5°C° 0 mm 4 mps 744 mmHg 76%
    05:00 +5°C° 0 mm 4 mps 744 mmHg 75%
    06:00 +5°C° 0 mm 4 mps 745 mmHg 75%
    07:00 +5°C° 0 mm 4 mps 745 mmHg 74%
    08:00 +6°C° 0 mm 5 mps 745 mmHg 67%
    09:00 +8°C° 0 mm 5 mps 745 mmHg 60%
    10:00 +9°C° 0 mm 5 mps 745 mmHg 53%
    11:00 +10°C° 0 mm 5 mps 744 mmHg 51%
    12:00 +12°C° 0 mm 4 mps 744 mmHg 48%
    13:00 +12°C° 0 mm 4 mps 744 mmHg 46%
    14:00 +11°C° 0 mm 4 mps 744 mmHg 49%
    15:00 +10°C° 0 mm 4 mps 744 mmHg 53%
    16:00 +8°C° 0 mm 4 mps 744 mmHg 57%
    17:00 +8°C° 0 mm 4 mps 744 mmHg 61%
    18:00 +7°C° 0 mm 5 mps 745 mmHg 65%
    19:00 +6°C° 0 mm 5 mps 745 mmHg 69%
    20:00 +6°C° 0 mm 5 mps 745 mmHg 71%
    21:00 +5°C° 0 mm 5 mps 746 mmHg 74%
    22:00 +5°C° 0 mm 4 mps 746 mmHg 76%
    23:00 +5°C° 0 mm 4 mps 746 mmHg 77%

    Day after tomorrow, 17 November, Saturday

    Time Temperature Precipitation Wind Pressure Humidity
    00:00 +5°C° 0 mm 4 mps 746 mmHg 77%
    01:00 +4°C° 0 mm 4 mps 746 mmHg 78%
    02:00 +4°C° 0 mm 4 mps 746 mmHg 78%
    03:00 +4°C° 0 mm 4 mps 745 mmHg 78%
    04:00 +4°C° 0 mm 4 mps 745 mmHg 78%
    05:00 +4°C° 0 mm 4 mps 745 mmHg 77%
    06:00 +4°C° 0 mm 4 mps 745 mmHg 76%
    07:00 +3°C° 0 mm 4 mps 745 mmHg 76%
    08:00 +5°C° 0 mm 5 mps 745 mmHg 68%
    09:00 +7°C° 0 mm 5 mps 745 mmHg 61%
    10:00 +8°C° 0 mm 5 mps 745 mmHg 53%
    11:00 +9°C° 0 mm 5 mps 745 mmHg 51%
    12:00 +11°C° 0 mm 4 mps 744 mmHg 49%
    13:00 +12°C° 0 mm 4 mps 744 mmHg 46%
    14:00 +11°C° 0 mm 4 mps 744 mmHg 49%
    15:00 +10°C° 0 mm 4 mps 744 mmHg 52%
    16:00 +8°C° 0 mm 4 mps 744 mmHg 55%
    17:00 +8°C° 0 mm 4 mps 744 mmHg 56%
    18:00 +7°C° 0 mm 5 mps 744 mmHg 57%
    19:00 +7°C° 0 mm 5 mps 744 mmHg 58%
    20:00 +6°C° 0 mm 5 mps 744 mmHg 59%
    21:00 +6°C° 0 mm 5 mps 744 mmHg 60%
    22:00 +5°C° 0 mm 5 mps 744 mmHg 61%
    23:00 +5°C° 0 mm 5 mps 744 mmHg 62%

    18 November, Sunday

    Time Temperature Precipitation Wind Pressure Humidity
    00:00 +5°C° 0 mm 5 mps 744 mmHg 63%
    01:00 +5°C° 0 mm 5 mps 744 mmHg 64%
    02:00 +5°C° 0 mm 5 mps 744 mmHg 64%
    03:00 +5°C° 0 mm 5 mps 744 mmHg 63%
    04:00 +5°C° 0 mm 5 mps 743 mmHg 62%
    05:00 +5°C° 0 mm 4 mps 743 mmHg 62%
    06:00 +5°C° 0 mm 4 mps 743 mmHg 62%
    07:00 +5°C° 0 mm 4 mps 743 mmHg 62%
    08:00 +6°C° 0.1 mm 4 mps 743 mmHg 60%
    09:00 +7°C° 0.1 mm 4 mps 743 mmHg 58%
    10:00 +8°C° 0.1 mm 4 mps 743 mmHg 56%
    11:00 +10°C° 0.2 mm 4 mps 743 mmHg 55%
    12:00 +10°C° 0.2 mm 4 mps 742 mmHg 55%
    13:00 +11°C° 0.2 mm 4 mps 741 mmHg 54%
    14:00 +11°C° 0.2 mm 4 mps 741 mmHg 57%
    15:00 +10°C° 0.2 mm 4 mps 741 mmHg 60%
    16:00 +10°C° 0.2 mm 3 mps 741 mmHg 62%
    17:00 +9°C° 0.3 mm 3 mps 741 mmHg 64%
    18:00 +9°C° 0.3 mm 3 mps 741 mmHg 66%
    19:00 +8°C° 0.3 mm 3 mps 741 mmHg 69%
    20:00 +8°C° 0.3 mm 3 mps 741 mmHg 70%
    21:00 +8°C° 0.3 mm 3 mps 741 mmHg 71%
    22:00 +8°C° 0.3 mm 3 mps 740 mmHg 72%
    23:00 +8°C° 0.7 mm 3 mps 740 mmHg 74%

    19 November, Monday

    Time Temperature Precipitation Wind Pressure Humidity
    00:00 +8°C° 0.7 mm 3 mps 740 mmHg 76%
    01:00 +8°C° 0.7 mm 3 mps 739 mmHg 78%
    02:00 +8°C° 0.9 mm 3 mps 739 mmHg 79%
    03:00 +7°C° 0.9 mm 3 mps 739 mmHg 81%
    04:00 +7°C° 0.9 mm 2 mps 738 mmHg 82%
    05:00 +7°C° 0.3 mm 2 mps 738 mmHg 82%
    06:00 +7°C° 0.3 mm 2 mps 738 mmHg 81%
    07:00 +7°C° 0.3 mm 2 mps 738 mmHg 81%
    08:00 +8°C° 0.1 mm 2 mps 738 mmHg 78%
    09:00 +9°C° 0.1 mm 2 mps 738 mmHg 74%
    10:00 +10°C° 0.1 mm 2 mps 738 mmHg 71%
    11:00 +10°C° 0.1 mm 2 mps 737 mmHg 70%
    12:00 +10°C° 0.1 mm 2 mps 737 mmHg 69%
    13:00 +12°C° 0.1 mm 1 mps 736 mmHg 68%
    14:00 +11°C° 0 mm 1 mps 736 mmHg 70%
    15:00 +11°C° 0 mm 1 mps 736 mmHg 73%
    16:00 +10°C° 0 mm 1 mps 736 mmHg 75%
    17:00 +9°C° 0 mm 1 mps 736 mmHg 77%
    18:00 +9°C° 0 mm 1 mps 737 mmHg 79%
    19:00 +8°C° 0 mm 1 mps 737 mmHg 81%
    20:00 +8°C° 0 mm 1 mps 737 mmHg 81%
    21:00 +6°C° 0 mm 2 mps 737 mmHg 80%
    22:00 +6°C° 0 mm 2 mps 737 mmHg 80%
    23:00 +6°C° 0 mm 2 mps 737 mmHg 79%

    20 November, Tuesday

    Time Temperature Precipitation Wind Pressure Humidity
    00:00 +5°C° 0 mm 2 mps 737 mmHg 79%
    01:00 +5°C° 0 mm 2 mps 738 mmHg 79%
    02:00 +5°C° 0 mm 2 mps 738 mmHg 78%
    03:00 +5°C° 0 mm 2 mps 737 mmHg 77%
    04:00 +3°C° 0 mm 3 mps 737 mmHg 77%
    05:00 +3°C° 0 mm 3 mps 738 mmHg 77%
    06:00 +3°C° 0 mm 3 mps 738 mmHg 78%
    07:00 +3°C° 0 mm 3 mps 738 mmHg 78%
    08:00 +4°C° 0 mm 3 mps 738 mmHg 73%
    09:00 +7°C° 0 mm 3 mps 738 mmHg 68%
    10:00 +8°C° 0 mm 3 mps 738 mmHg 64%
    11:00 +9°C° 0 mm 3 mps 738 mmHg 63%
    12:00 +9°C° 0 mm 3 mps 737 mmHg 62%
    13:00 +9°C° 0 mm 3 mps 737 mmHg 61%
    14:00 +9°C° 0.2 mm 3 mps 737 mmHg 65%
    15:00 +8°C° 0.2 mm 3 mps 737 mmHg 68%
    16:00 +7°C° 0.2 mm 3 mps 737 mmHg 72%
    17:00 +7°C° 0.6 mm 3 mps 737 mmHg 74%
    18:00 +7°C° 0.6 mm 3 mps 737 mmHg 76%
    19:00 +5°C° 0.6 mm 3 mps 737 mmHg 79%
    20:00 +5°C° 0.9 mm 4 mps 736 mmHg 80%
    21:00 +5°C° 0.9 mm 4 mps 736 mmHg 81%
    22:00 +4°C° 0.9 mm 4 mps 736 mmHg 83%
    23:00 +4°C° 1.5 mm 4 mps 735 mmHg 84%
    Show more